#timestamp,LO_Frequency,Hit 
1505872815.4,286047002.4,N
1505872835.2,286047000.7,N
1505872855.1,286047000.9,N
1505872856.0,286047000.9,N
1505872875.8,286047001.4,N
1505872895.6,286047000.5,N
1505872915.4,286046996.6,N
1505872935.3,286046999.6,N
1505872955.1,286047002.3,N
1505872975.8,286047002.4,N
1505872995.7,286047002.6,N
1505873015.5,286047001.5,N
1505873035.3,286047003.1,N
1505873055.2,286047006.0,N
1505873075.9,286047005.2,N
1505873095.7,286047007.1,N
1505873115.6,286047007.2,N
1505873135.4,286047008.4,N
1505873155.2,286047008.2,N
1505873175.1,286047008.8,N
1505873176.0,286047008.8,N
1505873195.8,286047008.6,N
1505873215.6,286047010.3,N
1505873235.5,286047008.6,N
1505873255.3,286047006.6,N
1505873275.1,286047007.9,N
1505873295.8,286047002.9,N
1505873315.7,286047001.8,N
1505873335.5,286047000.1,N
1505873355.3,286047003.7,N
1505873375.2,286047004.4,N
1505873395.9,286047007.2,N
1505873415.7,286047004.7,N
1505873435.6,286047003.4,N
1505873455.4,286047005.4,N
1505873475.2,286047006.8,N
1505873495.1,286047008.9,N
1505873496.0,286047008.9,P
1505873515.8,286047002.1,N
1505873535.6,286047000.5,N
1505873555.5,286047001.1,N
1505873575.3,286046998.2,N
1505873595.1,286046998.5,N
1505873615.9,286046998.1,N
1505873635.7,286046998.6,N
1505873655.5,286047002.4,N
1505873675.3,286047003.8,N
1505873695.2,286047003.4,N
1505873715.0,286047002.7,N
1505873715.9,286047002.7,N
1505873735.7,286047000.2,N
1505873755.6,286047002.7,N
1505873775.4,286047001.5,N
1505873795.2,286047004.3,N
1505873815.1,286047005.9,N
1505873816.0,286047005.9,N
1505873835.8,286047005.6,N
1505873855.6,286047006.0,N
1505873875.5,286047005.4,N
1505873895.3,286047002.4,N
1505873915.1,286047000.5,N
1505873935.9,286047001.5,N
1505873955.7,286047001.7,N
1505873975.5,286047002.4,N
1505873995.3,286046999.8,N
1505874015.2,286047000.4,N
1505874035.0,286047000.5,N
1505874035.9,286047000.5,N
1505874055.7,286047000.6,N
1505874075.6,286047001.6,N
1505874095.4,286047001.3,N
1505874115.2,286047001.9,N
1505874135.1,286047001.2,N
1505874136.0,286047001.2,N
1505874155.8,286047001.4,N
1505874175.6,286047005.0,N
1505874195.5,286047007.0,P
1505874215.3,286047001.5,N
1505874235.1,286047000.3,N
1505874255.9,286046998.5,N
1505874275.7,286046998.9,N
1505874295.5,286047000.0,N
1505874315.4,286047002.6,N
1505874335.2,286047001.8,N
1505874355.0,286047001.2,N
1505874355.9,286047001.2,N
1505874375.8,286047000.8,N
1505874395.6,286047000.6,N
1505874415.4,286046999.4,N
1505874435.2,286046998.9,N
1505874455.1,286046995.0,N
1505874456.0,286046995.0,N
1505874475.8,286046997.8,N
1505874495.6,286046996.1,N
1505874515.5,286046996.7,N
1505874535.3,286046998.5,N
1505874555.1,286047001.8,N
1505874575.9,286047002.1,N
1505874595.7,286047003.4,N
1505874615.5,286047005.7,N
1505874635.4,286047003.9,N
1505874655.2,286047005.5,N
1505874675.0,286047004.1,N
1505874675.9,286047004.1,N
1505874695.8,286047005.7,N
1505874715.6,286047007.1,N
1505874735.4,286047005.9,N
1505874755.3,286047001.3,N
1505874775.1,286047004.9,N
1505874776.0,286047004.9,N
1505874795.8,286047006.3,N
1505874815.6,286047004.7,N
1505874835.5,286047002.5,N
1505874855.3,286047003.9,N
1505874875.1,286047004.2,N
1505874895.9,286047003.8,N
1505874915.7,286047005.4,N
1505874935.5,286047007.2,N
1505874955.4,286047005.2,N
1505874975.2,286047004.0,N
1505874995.0,286047001.7,N
1505874995.9,286047001.7,N
1505875015.8,286047006.9,N
1505875035.6,286047005.2,N
1505875055.4,286047005.5,N
1505875075.3,286047004.5,N
1505875095.1,286047006.5,P
1505875115.8,286047003.2,P
1505875135.7,286047005.1,P
1505875155.5,286047002.2,N
1505875175.3,286047000.0,N
1505875195.2,286047002.2,N
1505875215.9,286047001.8,N
1505875235.7,286047002.2,N
1505875255.5,286047002.6,N
1505875275.4,286047000.9,N
1505875295.2,286047000.7,N
1505875315.0,286046999.6,N
1505875315.9,286046999.6,N
1505875335.8,286046998.8,N
1505875355.6,286047001.9,N
1505875375.4,286047003.5,N
1505875395.3,286047004.0,N
1505875415.1,286047005.7,N
1505875416.0,286047005.7,N
1505875435.8,286047004.1,N
1505875455.7,286047001.6,N
1505875475.5,286046998.6,N
1505875495.3,286046998.2,N
1505875515.2,286046999.6,N
1505875535.9,286046996.7,N
1505875555.7,286047001.2,N
1505875575.5,286046998.9,N
1505875595.4,286047000.8,N
1505875615.2,286047000.5,N
1505875635.0,286046998.7,N
1505875635.9,286046998.7,N
1505875655.8,286047000.2,N
1505875675.6,286047001.4,N
1505875695.4,286047002.3,N
1505875715.3,286047003.9,N
1505875735.1,286047004.1,N
1505875755.8,286046999.8,N
1505875775.7,286047002.7,N
1505875795.5,286047000.6,N
1505875815.3,286047000.7,N
1505875835.2,286047000.1,N
1505875855.9,286047004.4,N
1505875875.7,286047003.3,N
1505875895.6,286047003.7,N
1505875915.4,286047001.9,N
1505875935.2,286047004.2,N
1505875955.0,286047004.3,N
1505875956.0,286047004.3,N
1505875975.8,286047002.8,N
1505875995.6,286046999.8,N
1505876015.4,286047001.5,N
1505876035.3,286047004.2,N
1505876055.1,286047005.3,N
1505876075.8,286047003.5,N
1505876095.7,286047004.0,N
1505876115.5,286047004.8,N
1505876135.3,286047003.1,N
1505876155.2,286047005.7,N
1505876175.9,286047004.5,N
1505876195.7,286047007.2,P
1505876215.6,286047004.3,N
1505876235.4,286047001.6,N
1505876255.2,286047001.4,N
1505876275.1,286046999.8,N
1505876276.0,286046999.8,N
1505876295.8,286046998.4,N
1505876315.6,286047000.5,N
1505876335.5,286046998.8,N
1505876355.3,286046999.8,N
1505876375.1,286047002.0,N
1505876395.9,286047002.5,N
